ROMMA est une association bénévole à but non lucratif. Votre soutien est indispensable : ADHERER à ROMMA ou FAIRE un DON

Crempigny-Bonneguête - (74, Haute-Savoie)

Albanais-Montagne des Princes (500 m)   Longitude: 05° 54' 5" E   Latitude: 45° 57' 0" N Station partenaire n°10
 

Détail journalier du     <<     >>

Température Precipitation Humidité Pression Vent Dir Rafale Dir. rafale Ensol. 20 cm au dessus du sol
Heure (°C) (mm) (%) (hPa) (km/h) (km/h) (min) (°C)
01:00 1.909310066NNO11NNE01.1
02:00 1.809310065NO10NO01.1
03:00 2.00.29310065NNO10N01.7
04:00 2.109310066NNE18NNE01.7
05:00 2.109210055N15NNE01.7
06:00 2.109210056NNO15N01.7
07:00 1.80.29210057N18NE01.7
08:00 1.809110057NNE18N01.7
09:00 2.308910057N19NNE52.2
10:00 2.808610058NNE19NNE302.8
11:00 3.408710057N18NO104.4
12:00 4.7080100610NNE21N605.6
13:00 5.608010058NNE18N557.2
14:00 7.507010057NE18NNE608.9
15:00 8.807010056NNE15NNE6011.1
16:00 9.40.26110045NE13NNE6011.1
17:00 10.106210036NNE15NE5511.7
18:00 10.106110037NNE16N5511.1
19:00 8.706610039NNE19NNE358.3
20:00 6.707110036NNE16ENE05.6
21:00 5.307410045NO15N04.4
22:00 4.907910055NO11ONO04.4
23:00 4.807910054NO10NO03.9
minuit 4.308310054ONO10NO03.3

Graphique du 05-04-2019

 

Serveur OMMA